LIRALIRP

Guest
Details From LIRA - CIAMPINO
To LIRP - PISA
Flight Number -
Tags decoded
Created
Modified
Stats Distance 183 nm / 340 km
Max Altitude 0 ft / 0 m
Waypoints 6
Social Downloads 1
Likes 0
Share VATSIM

Download

Looking for another format? Having issues loading an existing format? Contact us
Advertisement - Login to hide

Notes

Requested: LIRA OST GILIO UM729 NORNI LIRP

Route

LIRA OST GILIO UM729 NORNI LIRP

ID Type Via Altitude Latitude Longitude Leg Dist Tot Dist Heading (true) Name
O LIRA APT - 0 ft / 0 m 41.79923˚ 12.59492˚ - 0 nm - CIAMPINO
OST NDB - 0 ft / 0 m 41.80528˚ 12.23639˚ 16 nm 16 nm 271° / 271° OSTIA NDB
GILIO FIX - 0 ft / 0 m 42.36667˚ 10.92611˚ 67 nm 83 nm 300° / 300° -
ELB VOR UM729 (AWY-HI) 0 ft / 0 m 42.73069˚ 10.39572˚ 32 nm 115 nm 313° / 313° ELBA VORTAC
NORNI FIX UM729 (AWY-HI) 0 ft / 0 m 43.27889˚ 9.97972˚ 37 nm 153 nm 331° / 331° -
O LIRP APT - 0 ft / 0 m 43.68388˚ 10.39272˚ 30 nm 183 nm 36° / 37° PISA

Altitude Profile

Advertisement - Login to hide

Weather


0- 5 10 15 20 25 30 35+ Temperature / ° C

Clouds and Precipitation
Forecast for 2018-05-23 18:00 UTC. Updated 5 hours ago

Ground ~20,000 ft ~40,000 ft Winds

LIRA

Details ICAO LIRA (CIA)
Name CIAMPINO
Region Italy
Timezone Europe/Rome (UTC+2.0)
Stats Elevation 427 ft / 130 m (AMSL)
Location 41.799228° 12.594917°
Runways 1
Magnetic Variation 3.104° E

METAR

LIRA 232220Z VRB02KT CAVOK 16/15 Q1016

Decode

TAF

TAF LIRA 231700Z 2318/2418 VRB05KT 8000 SCT020 SCT040 TEMPO 2402/2406 1200 BCFG

Decode

Departure Runways

ID Width Length Bearing (true) Bearing (mag) Surface Threshold Offset Overrun Length
15 154 ft / 47 m 7,246 ft / 2,209 m 152.79° 149.69° Asphalt 0 ft / 0 m 0 ft / 0 m
33 154 ft / 47 m 7,246 ft / 2,209 m 332.80° 329.70° Asphalt 0 ft / 0 m 0 ft / 0 m

LIRP

Details ICAO LIRP (PSA)
Name PISA
Region Italy
Timezone Europe/Rome (UTC+2.0)
Stats Elevation 6 ft / 2 m (AMSL)
Location 43.683883° 10.392724°
Runways 2
Magnetic Variation 2.752° E

METAR

LIRP 232215Z 21003KT 9999 SCT015 15/15 Q1017 NOSIG

Decode

TAF

TAF LIRP 231700Z 2318/2418 30010KT 9999 SCT030 TEMPO 2322/2406 3000 BR PROB40 TEMPO 2400/2406 0500 FG BKN002

Decode

Destination Runways

ID Width Length Bearing (true) Bearing (mag) Surface Threshold Offset Overrun Length
04L 141 ft / 43 m 9,158 ft / 2,791 m 36.70° 33.95° Asphalt 979 ft / 298 m 0 ft / 0 m
04R 148 ft / 45 m 9,819 ft / 2,993 m 36.72° 33.97° Asphalt 490 ft / 149 m 0 ft / 0 m
22L 148 ft / 45 m 9,819 ft / 2,993 m 216.73° 213.98° Asphalt 843 ft / 257 m 0 ft / 0 m
22R 141 ft / 43 m 9,158 ft / 2,791 m 216.72° 213.97° Asphalt 0 ft / 0 m 0 ft / 0 m

Approach Navaids

Runway Type Ident Frequency Range Bearing (true) Bearing (mag) Slope Elevation
04R Localiser IPI 109.70 MHz 18 nm / 33 km 36.76° 34.01° - 7 ft / 2 m (AMSL)
04R Glidescope IPI 109.70 MHz 10 nm / 19 km 36.72° 33.97° 3.00° 3 ft / 1 m (AMSL)

Popular Alternatives